Location: Unspecified
(0.0000°N, 0.0000°E)
Time: 03:22:08
(UTC+01:00)

Orbus 21S - Visible Passes

Search period start: 26 January 2015 00:00
Search period end: 05 February 2015 00:00
Orbit: 287 x 33449 km, 24.1° (Epoch: 24 January)

Date Brightness Start Highest point End Pass type
(mag) Time Alt. Az. Time Alt. Az. Time Alt. Az.
26 Jan 6.9 12:33:35 10° W 12:48:55 64° S 21:33:22 39° ENE visible
27 Jan 8.5 18:48:43 10° WSW 02:57:11 10° W 02:57:11 10° W visible
28 Jan 7.4 13:37:04 10° W 22:11:46 88° SSE 22:33:11 62° ENE visible
30 Jan 7.4 14:41:51 10° WSW 23:31:07 76° NNW 23:32:55 75° NNW visible
01 Feb 7.6 15:48:47 10° WSW 00:32:35 53° WNW 00:32:35 53° WNW visible
02 Feb 6.1 11:03:34 10° W 11:12:16 69° SSW 20:08:31 14° ENE visible
03 Feb 8.0 16:59:36 10° WSW 01:32:10 30° WNW 01:32:10 30° WNW visible
04 Feb 6.9 12:05:50 10° W 12:21:07 60° S 21:08:04 32° ENE visible
